"Period start","avg(HW err(1)/warn(2) (#))","avg(Visibility (m))","avg(Weather code (#))","avg(Precip intensity (mm/h))","min(HW err(1)/warn(2) (#))","max(HW err(1)/warn(2) (#))","std(HW err(1)/warn(2) (#))","med(HW err(1)/warn(2) (#))","min(Visibility (m))","max(Visibility (m))","std(Visibility (m))","med(Visibility (m))","min(Weather code (#))","max(Weather code (#))","std(Weather code (#))","med(Weather code (#))","min(Precip intensity (mm/h))","max(Precip intensity (mm/h))","std(Precip intensity (mm/h))","med(Precip intensity (mm/h))"
2013-10-15 00:00:00,2,2311,71,3.71,2,2,0,2,2022,2796,201,2302,71,71,0,71,2.25,5.10,0.83,3.77
2013-10-15 00:10:00,2,2399,71,3.22,2,2,0,2,2050,2896,261,2386,71,71,0,71,2.60,4.05,0.55,3.15
2013-10-15 00:20:00,2,2575,71,3.20,2,2,0,2,2189,2927,262,2624,71,71,0,71,1.90,4.20,0.65,3.17
2013-10-15 00:30:00,2,3120,71,2.31,2,2,0,2,2247,4066,563,3100,71,71,0,71,1.45,3.20,0.49,2.33
2013-10-15 00:40:00,2,3397,71,2.36,2,2,0,2,2697,4235,445,3252,71,71,0,71,1.60,3.00,0.49,2.35
2013-10-15 00:50:00,2,5262,71,1.44,2,2,0,2,3118,8408,1639,5068,71,71,0,71,0.90,2.00,0.33,1.38
2013-10-15 01:00:00,2,7349,71,1.02,2,2,0,2,4594,9381,1506,7266,71,71,0,71,0.50,1.55,0.28,1.05
2013-10-15 01:10:00,2,7220,71,0.91,2,2,0,2,5376,10352,1555,6843,71,71,0,71,0.50,1.25,0.23,0.90
2013-10-15 01:20:00,2,3337,71,2.19,2,2,0,2,2476,4033,563,3346,71,71,0,71,1.25,3.15,0.70,2.28
2013-10-15 01:30:00,2,4791,71,2.04,2,2,0,2,3404,7693,1324,4153,71,71,0,71,1.00,3.40,0.73,2.05
2013-10-15 01:40:00,2,3322,71,2.85,2,2,0,2,2092,4058,613,3464,71,71,0,71,2.00,4.65,0.75,2.62
2013-10-15 01:50:00,2,8425,71,0.92,2,2,0,2,5275,11112,1893,8342,71,71,0,71,0.25,2.75,0.67,0.83
2013-10-15 02:00:00,2,4741,71,1.85,2,2,0,2,3429,5441,681,5058,71,71,0,71,1.25,2.45,0.37,1.82
2013-10-15 02:10:00,2,6561,71,1.51,2,2,0,2,4793,11347,2008,5453,71,71,0,71,0.50,2.35,0.48,1.60
2013-10-15 02:20:00,2,10500,71,0.65,2,2,0,2,7200,14597,2548,10054,71,71,0,71,0.20,1.20,0.34,0.60
2013-10-15 02:30:00,2,22078,57,0.19,2,2,0,2,9155,33216,8641,24702,0,71,28,71,0.00,0.80,0.30,0.00
2013-10-15 02:40:00,2,39224,0,0.00,2,2,0,2,31486,46958,5567,37780,0,0,0,0,0.00,0.00,0.00,0.00
2013-10-15 02:50:00,2,43042,0,0.00,2,2,0,2,35425,49871,5002,43210,0,0,0,0,0.00,0.00,0.00,0.00
2013-10-15 03:00:00,2,45103,45,0.00,2,2,0,2,37201,50000,4014,44662,0,77,32,56,0.00,0.00,0.00,0.00
2013-10-15 03:10:00,2,12193,43,0.66,2,2,0,2,3497,23712,6928,8976,0,71,35,71,0.00,1.70,0.70,0.40
2013-10-15 03:20:00,2,5895,71,1.28,2,2,0,2,3464,8559,1626,5951,71,71,0,71,0.35,2.50,0.64,1.00
2013-10-15 03:30:00,2,8746,71,0.92,2,2,0,2,4236,19498,4499,7448,71,71,0,71,0.05,2.10,0.73,0.82
2013-10-15 03:40:00,2,16649,71,0.07,2,2,0,2,11215,24914,3837,15308,71,71,0,71,0.00,0.20,0.07,0.05
2013-10-15 03:50:00,2,19348,71,0.02,2,2,0,2,7874,32023,7447,18122,71,71,0,71,0.00,0.10,0.03,0.00
2013-10-15 04:00:00,2,5311,75,0.35,2,2,0,2,4390,6517,633,5309,71,77,3,77,0.05,0.75,0.22,0.33
2013-10-15 04:10:00,2,5024,71,1.06,2,2,0,2,4113,6597,796,5014,71,71,0,71,0.55,1.70,0.38,1.15
2013-10-15 04:20:00,2,14773,71,0.26,2,2,0,2,8709,18770,3092,15729,71,71,0,71,0.00,1.10,0.32,0.12
2013-10-15 04:30:00,2,28068,21,0.00,2,2,0,2,18885,35072,5585,29026,0,71,33,0,0.00,0.00,0.00,0.00
2013-10-15 04:40:00,2,19675,14,0.01,2,2,0,2,11398,36046,7528,17532,0,71,28,0,0.00,0.05,0.02,0.00
2013-10-15 04:50:00,2,27669,75,0.01,2,2,0,2,11904,46051,11691,29271,71,77,3,77,0.00,0.05,0.02,0.00
2013-10-15 05:00:00,2,37414,7,0.00,2,2,0,2,29461,42898,4976,38755,0,71,21,0,0.00,0.00,0.00,0.00
2013-10-15 05:10:00,2,46151,0,0.00,2,2,0,2,38793,50000,3659,47069,0,0,0,0,0.00,0.00,0.00,0.00
2013-10-15 05:20:00,2,47860,0,0.00,2,2,0,2,41089,50000,3377,50000,0,0,0,0,0.00,0.00,0.00,0.00
2013-10-15 05:30:00,2,39099,0,0.00,2,2,0,2,32792,49839,4979,39014,0,0,0,0,0.00,0.00,0.00,0.00
2013-10-15 05:40:00,2,37662,49,0.00,2,2,0,2,32187,43143,3481,37328,0,77,28,56,0.00,0.00,0.00,0.00
2013-10-15 05:50:00,2,30553,72,0.01,2,2,0,2,20078,41470,6213,30492,71,77,2,71,0.00,0.05,0.02,0.00
2013-10-15 06:00:00,2,44470,0,0.00,2,2,0,2,37804,50000,4050,45025,0,0,0,0,0.00,0.00,0.00,0.00
2013-10-15 06:10:00,2,47624,0,0.00,2,2,0,2,42358,50000,2911,49362,0,0,0,0,0.00,0.00,0.00,0.00
2013-10-15 06:20:00,2,28681,7,0.00,2,2,0,2,13877,40552,9325,32664,0,71,21,0,0.00,0.00,0.00,0.00
2013-10-15 06:30:00,2,19529,72,0.01,2,2,0,2,15628,24875,3218,18664,71,77,2,71,0.00,0.05,0.02,0.00
2013-10-15 06:40:00,2,14200,78,0.03,2,2,0,2,11403,17466,1643,14140,77,78,0,78,0.00,0.10,0.03,0.00
2013-10-15 06:50:00,2,27484,55,0.01,2,2,0,2,17425,32279,4385,28582,0,78,36,78,0.00,0.05,0.02,0.00
2013-10-15 07:00:00,2,28693,53,0.01,2,2,0,2,23256,34626,2909,29100,0,78,35,74,0.00,0.05,0.02,0.00
2013-10-15 07:10:00,2,18738,72,0.08,2,2,0,2,13970,25326,3542,19184,71,78,3,71,0.00,0.40,0.12,0.05
2013-10-15 07:20:00,2,25166,7,0.00,2,2,0,2,19653,33099,4533,24898,0,71,21,0,0.00,0.00,0.00,0.00
2013-10-15 07:30:00,2,34779,0,0.00,2,2,0,2,12911,49799,11910,37526,0,0,0,0,0.00,0.00,0.00,0.00
2013-10-15 07:40:00,2,20469,22,0.00,2,2,0,2,10920,32121,6881,20624,0,78,34,0,0.00,0.00,0.00,0.00
2013-10-15 07:50:00,2,37034,0,0.00,2,2,0,2,24701,45764,5982,37708,0,0,0,0,0.00,0.00,0.00,0.00
2013-10-15 08:00:00,2,14096,7,0.00,2,2,0,2,10094,17947,2155,14074,0,71,21,0,0.00,0.00,0.00,0.00
2013-10-15 08:10:00,2,16949,77,0.00,2,2,0,2,14049,21403,2279,16202,71,78,2,78,0.00,0.00,0.00,0.00
2013-10-15 08:20:00,2,19974,78,0.00,2,2,0,2,12286,31042,5280,19385,78,78,0,78,0.00,0.00,0.00,0.00
2013-10-15 08:30:00,2,32433,16,0.00,2,2,0,2,24571,40171,4539,32228,0,78,31,0,0.00,0.00,0.00,0.00
2013-10-15 08:40:00,2,25344,22,0.00,2,2,0,2,17441,31365,4761,26213,0,78,34,0,0.00,0.00,0.00,0.00
2013-10-15 08:50:00,2,13269,78,0.00,2,2,0,2,6865,20242,3781,12518,78,78,0,78,0.00,0.00,0.00,0.00
2013-10-15 09:00:00,2,12620,78,0.00,2,2,0,2,8867,17593,2428,12678,78,78,0,78,0.00,0.00,0.00,0.00
2013-10-15 09:10:00,2,10445,78,0.00,2,2,0,2,8205,15073,1960,10272,78,78,0,78,0.00,0.00,0.00,0.00
2013-10-15 09:20:00,2,6245,78,0.01,2,2,0,2,3332,12324,2438,5562,78,78,0,78,0.00,0.05,0.02,0.00
2013-10-15 09:30:00,2,4343,78,0.00,2,2,0,2,3412,6601,915,4066,78,78,0,78,0.00,0.00,0.00,0.00
2013-10-15 09:40:00,2,3272,76,0.01,2,2,0,2,2178,4561,606,3149,71,78,3,78,0.00,0.05,0.02,0.00
2013-10-15 09:50:00,2,2714,76,0.12,2,2,0,2,2003,3555,507,2826,71,78,3,78,0.00,0.45,0.14,0.05
2013-10-15 10:00:00,2,2492,76,0.05,2,2,0,2,1502,3264,415,2504,71,78,3,78,0.00,0.10,0.02,0.05
2013-10-15 10:10:00,2,3649,78,0.02,2,2,0,2,2047,5184,1014,3536,78,78,0,78,0.00,0.05,0.02,0.00
2013-10-15 10:20:00,2,6388,78,0.00,2,2,0,2,3897,9231,1704,6866,78,78,0,78,0.00,0.00,0.00,0.00
2013-10-15 10:30:00,2,9905,10,0.00,2,2,0,2,8054,13992,1683,9482,10,10,0,10,0.00,0.00,0.00,0.00
2013-10-15 10:40:00,2,15121,8,0.00,2,2,0,2,9563,25314,4930,14060,0,10,4,10,0.00,0.00,0.00,0.00
2013-10-15 10:50:00,2,18046,0,0.00,2,2,0,2,9125,33482,8261,14554,0,0,0,0,0.00,0.00,0.00,0.00
2013-10-15 11:00:00,2,7535,32,0.00,2,2,0,2,5227,9067,1198,7860,0,78,35,10,0.00,0.00,0.00,0.00
2013-10-15 11:10:00,2,7918,78,0.01,2,2,0,2,6474,9453,1017,7934,78,78,0,78,0.00,0.05,0.02,0.00
2013-10-15 11:20:00,2,9391,78,0.00,2,2,0,2,6225,13450,2255,8809,78,78,0,78,0.00,0.00,0.00,0.00
2013-10-15 11:30:00,2,16760,55,0.00,2,2,0,2,13341,22307,3255,15488,0,78,36,78,0.00,0.00,0.00,0.00
2013-10-15 11:40:00,2,19010,0,0.00,2,2,0,2,14749,24623,3722,18068,0,0,0,0,0.00,0.00,0.00,0.00
2013-10-15 11:50:00,2,16358,0,0.00,2,2,0,2,12358,20109,2372,16254,0,0,0,0,0.00,0.00,0.00,0.00
2013-10-15 12:00:00,2,15244,0,0.00,2,2,0,2,10701,19656,2919,14892,0,0,0,0,0.00,0.00,0.00,0.00
2013-10-15 12:10:00,2,26857,0,0.00,2,2,0,2,20257,33384,4494,26976,0,0,0,0,0.00,0.00,0.00,0.00
2013-10-15 12:20:00,2,44568,0,0.00,2,2,0,2,29979,50000,7563,48718,0,0,0,0,0.00,0.00,0.00,0.00
2013-10-15 12:30:00,2,42351,0,0.00,2,2,0,2,30204,50000,6545,43646,0,0,0,0,0.00,0.00,0.00,0.00
2013-10-15 12:40:00,2,49244,0,0.00,2,2,0,2,44170,50000,1743,50000,0,0,0,0,0.00,0.00,0.00,0.00
2013-10-15 12:50:00,2,46771,0,0.00,2,2,0,2,40344,50000,2972,47566,0,0,0,0,0.00,0.00,0.00,0.00
2013-10-15 13:00:00,2,27634,0,0.00,2,2,0,2,15136,50000,11750,23584,0,0,0,0,0.00,0.00,0.00,0.00
2013-10-15 13:10:00,2,11151,0,0.00,2,2,0,2,9588,13533,1282,10874,0,0,0,0,0.00,0.00,0.00,0.00
2013-10-15 13:20:00,2,8703,6,0.00,2,2,0,2,7322,11435,1155,8468,0,10,5,10,0.00,0.00,0.00,0.00
2013-10-15 13:30:00,2,9404,63,0.00,2,2,0,2,7475,10973,1153,9300,10,78,27,78,0.00,0.00,0.00,0.00
2013-10-15 13:40:00,2,7542,78,0.01,2,2,0,2,6090,8591,880,7730,78,78,0,78,0.00,0.05,0.02,0.00
2013-10-15 13:50:00,2,6377,77,0.09,2,2,0,2,5501,7737,643,6321,71,78,3,78,0.00,0.30,0.11,0.05
2013-10-15 14:00:00,2,5853,71,0.21,2,2,0,2,4559,6716,671,5750,71,71,0,71,0.10,0.40,0.10,0.20
2013-10-15 14:10:00,2,6849,72,0.07,2,2,0,2,5925,8171,818,6525,71,77,2,71,0.00,0.30,0.08,0.05
2013-10-15 14:20:00,2,5587,78,0.01,2,2,0,2,3410,8131,1535,5874,77,78,0,78,0.00,0.05,0.02,0.00
2013-10-15 14:30:00,1,2510,78,0.05,1,2,0,1,1943,3271,520,2414,78,78,0,78,0.05,0.05,0.00,0.05
2013-10-15 14:40:00,1,,,,1,1,0,1,,,,,,,,,,,,
2013-10-15 14:50:00,1,,,,1,1,0,1,,,,,,,,,,,,
2013-10-15 15:00:00,1,,,,1,1,0,1,,,,,,,,,,,,
2013-10-15 15:10:00,1,,,,1,1,0,1,,,,,,,,,,,,
2013-10-15 15:20:00,1,,,,1,1,0,1,,,,,,,,,,,,
2013-10-15 15:30:00,1,,,,1,1,0,1,,,,,,,,,,,,
2013-10-15 15:40:00,1,,,,1,1,0,1,,,,,,,,,,,,
2013-10-15 15:50:00,1,,,,1,1,0,1,,,,,,,,,,,,
2013-10-15 16:00:00,1,,,,1,1,0,1,,,,,,,,,,,,
2013-10-15 16:10:00,1,,,,1,1,0,1,,,,,,,,,,,,
2013-10-15 16:20:00,1,,,,1,1,0,1,,,,,,,,,,,,
2013-10-15 16:30:00,1,,,,1,1,0,1,,,,,,,,,,,,
2013-10-15 16:40:00,1,,,,1,1,0,1,,,,,,,,,,,,
2013-10-15 16:50:00,1,,,,1,1,0,1,,,,,,,,,,,,
2013-10-15 17:00:00,1,,,,1,1,0,1,,,,,,,,,,,,
2013-10-15 17:10:00,1,,,,1,1,0,1,,,,,,,,,,,,
2013-10-15 17:20:00,1,,,,1,1,0,1,,,,,,,,,,,,
2013-10-15 17:30:00,1,,,,1,1,0,1,,,,,,,,,,,,
2013-10-15 17:40:00,1,,,,1,1,0,1,,,,,,,,,,,,
2013-10-15 17:50:00,1,,,,1,1,0,1,,,,,,,,,,,,
2013-10-15 18:00:00,1,,,,1,1,0,1,,,,,,,,,,,,
2013-10-15 18:10:00,1,,,,1,1,0,1,,,,,,,,,,,,
2013-10-15 18:20:00,1,,,,1,1,0,1,,,,,,,,,,,,
2013-10-15 18:30:00,1,,,,1,1,0,1,,,,,,,,,,,,
2013-10-15 18:40:00,1,,,,1,1,0,1,,,,,,,,,,,,
2013-10-15 18:50:00,1,,,,1,1,0,1,,,,,,,,,,,,
2013-10-15 19:00:00,1,,,,1,1,0,1,,,,,,,,,,,,
2013-10-15 19:10:00,1,,,,1,1,0,1,,,,,,,,,,,,
2013-10-15 19:20:00,1,,,,1,1,0,1,,,,,,,,,,,,
2013-10-15 19:30:00,1,,,,1,1,0,1,,,,,,,,,,,,
2013-10-15 19:40:00,1,,,,1,1,0,1,,,,,,,,,,,,
2013-10-15 19:50:00,1,,,,1,1,0,1,,,,,,,,,,,,
2013-10-15 20:00:00,1,,,,1,1,0,1,,,,,,,,,,,,
2013-10-15 20:10:00,1,,,,1,1,0,1,,,,,,,,,,,,
2013-10-15 20:20:00,1,,,,1,1,0,1,,,,,,,,,,,,
2013-10-15 20:30:00,1,,,,1,1,0,1,,,,,,,,,,,,
2013-10-15 20:40:00,1,,,,1,1,0,1,,,,,,,,,,,,
2013-10-15 20:50:00,1,,,,1,1,0,1,,,,,,,,,,,,
2013-10-15 21:00:00,1,,,,1,1,0,1,,,,,,,,,,,,
2013-10-15 21:10:00,1,,,,1,1,0,1,,,,,,,,,,,,
2013-10-15 21:20:00,1,,,,1,1,0,1,,,,,,,,,,,,
2013-10-15 21:30:00,1,,,,1,1,0,1,,,,,,,,,,,,
2013-10-15 21:40:00,1,,,,1,1,0,1,,,,,,,,,,,,
2013-10-15 21:50:00,1,,,,1,1,0,1,,,,,,,,,,,,
2013-10-15 22:00:00,1,,,,1,1,0,1,,,,,,,,,,,,
2013-10-15 22:10:00,1,,,,1,1,0,1,,,,,,,,,,,,
2013-10-15 22:20:00,1,,,,1,1,0,1,,,,,,,,,,,,
2013-10-15 22:30:00,1,,,,1,1,0,1,,,,,,,,,,,,
2013-10-15 22:40:00,1,,,,1,1,0,1,,,,,,,,,,,,
2013-10-15 22:50:00,1,,,,1,1,0,1,,,,,,,,,,,,
2013-10-15 23:00:00,1,,,,1,1,0,1,,,,,,,,,,,,
2013-10-15 23:10:00,1,,,,1,1,0,1,,,,,,,,,,,,
2013-10-15 23:20:00,1,,,,1,1,0,1,,,,,,,,,,,,
2013-10-15 23:30:00,1,,,,1,1,0,1,,,,,,,,,,,,
2013-10-15 23:40:00,1,,,,1,1,0,1,,,,,,,,,,,,
2013-10-15 23:50:00,1,,,,1,1,0,1,,,,,,,,,,,,
